Regional Weather Roundup
Issued by NWS

Home | Current Version | Previous Version | Text Only | Print | Product List | Glossary Off
Versions: 1 2 3 4 5 6 7 8 9 10 11 12 13 14 15 16 17 18 19 20 21 22 23 24 25 26 27 28 29 30 31 32 33 34 35 36 37 38 39 40 41 42 43 44 45 46 47 48 49 50

000
ASUS45 KBOU 281207
RWRCO

WEATHER ROUNDUP FOR COLORADO
NATIONAL WEATHER SERVICE DENVER/BOULDER CO
600 AM MDT TUE APR 28 2015

NOTE: "FAIR" INDICATES FEW OR NO CLOUDS BELOW 12000 FEET WITH NO
SIGNIFICANT WEATHER AND/OR OBSTRUCTIONS TO VISIBILITY.

COZ001>005-013-030-031-281300-
...NORTHWEST COLORADO...

CITY           SKY/WX    TMP DP  RH WIND       PRES   REMARKS
CRAIG          CLOUDY    35  34  96 CALM      30.32R
HAYDEN         CLOUDY    36  32  87 W5        30.31R
MEEKER         PTCLDY    32  30  92 CALM      30.31R
MOUNT WERNER   NOT AVBL
STEAMBOAT SPGS CLOUDY    35  34  97 CALM      30.31R
WALDEN         CLOUDY    30  28  93 SE5       30.33R WCI  25
$$

COZ006>008-011-281300-
...WEST CENTRAL VALLEYS...

CITY           SKY/WX    TMP DP  RH WIND       PRES   REMARKS
GRAND JUNCTION CLEAR     43  39  86 CALM      30.22S
MONTROSE       MOCLDY    44  38  79 SE5       30.27R
EAGLE          PTCLDY    36  34  93 E6        30.33R
RIFLE          CLEAR     37  34  89 NE3       30.27S
DELTA          PTCLDY    45  41  86 MISG      30.25R
NUCLA          PTCLDY    41  36  81 E5        30.28R
$$

COZ017>023-064>068-281300-
...SOUTHWEST COLORADO...

CITY           SKY/WX    TMP DP  RH WIND       PRES   REMARKS
DURANGO        PTCLDY    36  35  96 NE5       30.28R
CORTEZ         CLEAR     36  34  92 CALM      30.25R
PAGOSA SPRINGS PTCLDY    29  27  91 CALM      30.31R
TELLURIDE      PTCLDY    35  33  94 SE5       30.33S WCI  30
WOLF CREEK PAS NOT AVBL
$$

COZ009-010-012-014-032>034-037-058>063-281300-
...CENTRAL COLORADO...

CITY           SKY/WX    TMP DP  RH WIND       PRES   REMARKS
ASPEN          PTCLDY    31  26  82 SW7       30.30S WCI  24
BUENA VISTA    CLOUDY    34  30  86 SE6       30.37S WCI  28
COPPER MTN     PTCLDY    27   9  46 S6        30.39R WCI  20
BERTHOUD PASS  FAIR      18  10  73 N3        30.40S
COTTONWOOD PAS CLOUDY    32  23  69 CALM      30.38F
GUNNISON       PTCLDY    28  21  74 N8        30.36S WCI  20
KREMMLING      CLEAR     28  25  86 CALM      30.34S
LEADVILLE      CLOUDY    25  22  88 E3        30.37S
MONARCH PASS   CLOUDY    19  18  93 MISG      30.48R
SALIDA         CLOUDY    36  33  87 CALM      30.45S
SUNLIGHT       PTCLDY    32  32 100 CALM      30.40S
WILKERSON PASS CLOUDY    21  19  93 NW3       30.40F
$$

COZ069>075-281300-
...SAN LUIS VALLEY/SANGRE DE CRISTO MOUNTAINS...

CITY           SKY/WX    TMP DP  RH WIND       PRES   REMARKS
ALAMOSA        PTCLDY    23  20  88 S3        30.34R
LA VETA PASS   FOG       27  23  86 MISG      30.37R VSB 1/2
SAGUACHE       PTCLDY    27  23  86 NW6       30.35S WCI  20
$$

COZ035-036-038>040-281300-
...NORTHERN COLORADO FRONT RANGE...

CITY           SKY/WX    TMP DP  RH WIND       PRES   REMARKS
DENVER INTL AP CLOUDY    42  39  89 E5        30.34S FOG
DMNS CITY PARK   N/A     38  37  96 S2        30.34S
AURORA         PTCLDY    35  35 100 SE3       30.35S
FRONT RANGE AP CLOUDY    43  41  93 CALM      30.35S FOG
ERIE MUNI ARPT CLOUDY    38  38  98 CALM      30.34S
BOULDER MUN AP CLOUDY    41  37  87 CALM      30.34S
CENTENNIAL     PTCLDY    36  35  96 S5        30.34F FOG
BROOMFIELD     CLOUDY    37  36  93 W5        30.35S
FORT COLLINS   CLOUDY    43  39  87 CALM      30.36S
LONGMONT       CLOUDY    42  39  91 CALM      30.36S
$$

COZ041-046-047-076>085-087-088-281300-
...PIKES PEAK/PALMER DIVIDE AND SOUTHERN FOOTHILLS...

CITY           SKY/WX    TMP DP  RH WIND       PRES   REMARKS
COLO. SPRINGS  PTCLDY    37  30  75 N6        30.35S
A. F. ACADEMY  PTCLDY    31  31  97 N7        30.35S WCI  25
ELLICOTT       CLOUDY   N/A N/A N/A N8        30.33F
FALCON         PTCLDY    33  31  93 N7        30.36S WCI  27
FORT CARSON    PTCLDY    35  30  80 NW6       30.33S WCI  30
LIMON          CLOUDY    40  38  93 N7        30.34R
MONUMENT HILL  CLOUDY    32  32 100 CALM      30.35S FOG
TRINIDAD       PTCLDY    36  33  89 NW9       30.33S
$$

COZ042>045-048>051-090-091-281300-
...NORTHEAST COLORADO...

CITY           SKY/WX    TMP DP  RH WIND       PRES   REMARKS
GREELEY ARPT   MOCLDY    43  36  75 CALM      30.35S
AKRON          CLOUDY    40  39  97 N6        30.33R
BURLINGTON     MOCLDY    39  36  89 NE8       30.30S
WRAY           PTCLDY    41  41 100 N3        30.32R
STERLING       CLOUDY    45  43  93 N6        30.33R
HOLYOKE        PTCLDY    43  41  93 N7        30.33R
FORT MORGAN    CLOUDY    43  40  89 CALM      30.35R
$$

COZ086-089-092>099-281300-
...SOUTHEAST COLORADO...

CITY           SKY/WX    TMP DP  RH WIND       PRES   REMARKS
PUEBLO         PTCLDY    37  34  89 W5        30.32S
LA JUNTA       CLOUDY    46  39  76 N9        30.30S
LAMAR          CLOUDY    45  41  86 N7        30.26S
SPRINGFIELD      N/A     35  33  92 NW12      30.27R WCI  27
$$


USA.gov is the U.S. government's official web portal to all federal, state and local government web resources and services.